World > North America > United States > Missouri

Cairo, Missouri Regional Weather

Lat: 39.51N, Lon: 92.44W
Wx Zone: MOZ033Web Search
Cairo Weather Warning NWS WEATHER ALERT FOR THE CAIRO, MO AREA - Issued: 457 AM CDT Wed Apr 14 2021 Cairo Weather Warning  

Our weather pages are very print friendly and they make great conversation starters.

Feedback


°F Click to change Cairo hourly weather to Imperial units.Click to change Cairo hourly weather to Metric units. °C
Cairo Weather Map
UTC Time: 4/14/2021, 13:21
Your Time:

Cairo, MO Regional Weather

Expires:202104141400;;539756
ASUS43 KEAX 141315
RWREAX

WEATHER ROUNDUP FOR EASTERN KANSAS AND NORTHWEST MISSOURI
NATIONAL WEATHER SERVICE KANSAS CITY/PLEASANT HILL MO
800 AM CDT WED APR 14 2021


MOZ001>008-011>017-020>025-030>033-038>040-044>046-053-054-141400-
...NORTHERN AND CENTRAL MISSOURI...
  
CITY           SKY/WX    TMP DP  RH WIND       PRES   REMARKS
ST. JOSEPH     SUNNY     37  29  72 NE5       30.29R WCI  33          
MOSBY          SUNNY     41  28  60 N5        30.29R                  
HARRISONVILLE  SUNNY     45  32  61 NE9       30.28R                  
WHITEMAN AFB   NOT AVBL                                               
CLINTON        SUNNY     45  36  70 N10       30.23S                  
SEDALIA        SUNNY     44  34  67 N8        30.26R                  
MARSHALL       SUNNY     41  30  65 N7        30.28R                  
CHILLICOTHE      N/A     41  26  55 VRB3      30.27R                  
MOBERLY        SUNNY     41  28  60 CALM      30.26S                  
KIRKSVILLE     SUNNY     39  27  62 W5        30.24R                  

$$


SKY/WX - Weather  TMP - Temperature  DP - Dew Point  RH - Relative Humidity
WIND - Wind Direction/Speed PRES - Barometric Pressure VSB - Visibility
WCI - Wind Chill Index E13G22 Wind - East Wind 13 mph/Gusts of 22 mph